| time (UTC) | temp C | wind direction | speed KPH | gust KPH | rain 1hr cm | rain 24hr cm | rain mn cm | humidity % | barometer mb |
| 20260510205254 | 22 | 118 | 0.0 | 3.2 | 0.00 | 0.00 | 0.00 | 72 | |
| 20260510204750 | 22 | 132 | 3.2 | 3.2 | 0.00 | 0.00 | 0.00 | 72 | |
| 20260510204246 | 23 | 76 | 0.0 | 1.6 | 0.00 | 0.00 | 0.00 | 69 | |
| 20260510203743 | 23 | 89 | 0.0 | 1.6 | 0.00 | 0.00 | 0.00 | 66 | |
| 20260510203241 | 23 | 44 | 0.0 | 1.6 | 0.00 | 0.00 | 0.00 | 67 | |
| 20260510202741 | 23 | 75 | 0.0 | 0.0 | 0.00 | 0.00 | 0.00 | 67 | |
| 20260510202236 | 23 | 55 | 0.0 | 0.0 | 0.00 | 0.00 | 0.00 | 67 | |
| 20260510201734 | 23 | 37 | 1.6 | 3.2 | 0.00 | 0.00 | 0.00 | 64 | |
| 20260510201230 | 24 | 14 | 0.0 | 3.2 | 0.00 | 0.00 | 0.00 | 64 | |
| 20260510200727 | 25 | 62 | 0.0 | 1.6 | 0.00 | 0.00 | 0.00 | 65 | |
| 20260510200225 | 25 | 89 | 0.0 | 0.0 | 0.00 | 0.00 | 0.00 | 64 | |
| 20260510195721 | 25 | 15 | 1.6 | 1.6 | 0.00 | 0.00 | 0.00 | 64 | |
| 20260510195218 | 25 | 124 | 0.0 | 0.0 | 0.00 | 0.00 | 0.00 | 62 | |
| 20260510194717 | 25 | 60 | 0.0 | 1.6 | 0.00 | 0.00 | 0.00 | 61 | |
| 20260510194214 | 25 | 113 | 0.0 | 1.6 | 0.00 | 0.00 | 0.00 | 62 | |
| 20260510193709 | 25 | 69 | 0.0 | 3.2 | 0.00 | 0.00 | 0.00 | 64 | |
| 20260510193204 | 25 | 80 | 0.0 | 1.6 | 0.00 | 0.00 | 0.00 | 62 | |
| 20260510192700 | 23 | 55 | 0.0 | 0.0 | 0.00 | 0.00 | 0.00 | 64 | |
| 20260510192156 | 23 | 129 | 0.0 | 0.0 | 0.00 | 0.00 | 0.00 | 64 | |
| 20260510191652 | 24 | 89 | 0.0 | 1.6 | 0.00 | 0.00 | 0.00 | 62 | |
| 20260510191149 | 24 | 113 | 0.0 | 1.6 | 0.00 | 0.00 | 0.00 | 60 | |
| 20260510190646 | 25 | 129 | 0.0 | 1.6 | 0.00 | 0.00 | 0.00 | 61 | |
| 20260510190143 | 25 | 150 | 0.0 | 1.6 | 0.00 | 0.00 | 0.00 | 60 | |
| 20260510185640 | 25 | 110 | 0.0 | 1.6 | 0.00 | 0.00 | 0.00 | 59 | |
| 20260510185138 | 25 | 142 | 0.0 | 3.2 | 0.00 | 0.00 | 0.00 | 59 | |
| 20260510184635 | 25 | 112 | 0.0 | 3.2 | 0.00 | 0.00 | 0.00 | 62 | |
| 20260510184131 | 25 | 105 | 1.6 | 3.2 | 0.00 | 0.00 | 0.00 | 59 | |
| 20260510183626 | 23 | 163 | 1.6 | 3.2 | 0.00 | 0.00 | 0.00 | 63 | |
| 20260510183121 | 24 | 165 | 0.0 | 1.6 | 0.00 | 0.00 | 0.00 | 62 | |
| 20260510182619 | 25 | 89 | 0.0 | 1.6 | 0.00 | 0.00 | 0.00 | 60 | |
| 20260510182114 | 24 | 129 | 0.0 | 3.2 | 0.00 | 0.00 | 0.00 | 60 | |
| 20260510181611 | 24 | 103 | 0.0 | 3.2 | 0.00 | 0.00 | 0.00 | 61 | |
| 20260510181107 | 24 | 103 | 0.0 | 1.6 | 0.00 | 0.00 | 0.00 | 61 | |
| 20260510180604 | 24 | 106 | 3.2 | 3.2 | 0.00 | 0.00 | 0.00 | 61 | |
| 20260510175557 | 23 | 81 | 1.6 | 1.6 | 0.00 | 0.00 | 0.00 | 61 | |
| 20260510175053 | 23 | 151 | 0.0 | 3.2 | 0.00 | 0.00 | 0.00 | 60 | |
| 20260510174551 | 23 | 98 | 0.0 | 3.2 | 0.00 | 0.00 | 0.00 | 62 | |
| 20260510174048 | 23 | 126 | 3.2 | 3.2 | 0.00 | 0.00 | 0.00 | 64 | |
| 20260510173543 | 22 | 94 | 1.6 | 4.8 | 0.00 | 0.00 | 0.00 | 67 | |
| 20260510173040 | 22 | 144 | 3.2 | 4.8 | 0.00 | 0.00 | 0.00 | 67 | |
| 20260510172536 | 22 | 139 | 3.2 | 4.8 | 0.00 | 0.00 | 0.00 | 70 | |
| 20260510172033 | 22 | 118 | 3.2 | 4.8 | 0.00 | 0.00 | 0.00 | 69 | |
| 20260510171529 | 22 | 109 | 1.6 | 3.2 | 0.00 | 0.00 | 0.00 | 66 | |
| 20260510171026 | 22 | 129 | 1.6 | 3.2 | 0.00 | 0.00 | 0.00 | 69 | |
| 20260510170517 | 21 | 107 | 3.2 | 3.2 | 0.00 | 0.00 | 0.00 | 70 | |
| 20260510170014 | 21 | 101 | 1.6 | 3.2 | 0.00 | 0.00 | 0.00 | 74 | |
| 20260510165509 | 21 | 141 | 3.2 | 6.4 | 0.00 | 0.00 | 0.00 | 73 | |
| 20260510165006 | 21 | 110 | 3.2 | 3.2 | 0.00 | 0.00 | 0.00 | 70 | |
| 20260510164503 | 21 | 59 | 0.0 | 3.2 | 0.00 | 0.00 | 0.00 | 68 | |
| 20260510163959 | 21 | 121 | 0.0 | 3.2 | 0.00 | 0.00 | 0.00 | 70 | |
| 20260510163455 | 21 | 119 | 1.6 | 3.2 | 0.00 | 0.00 | 0.00 | 71 | |
| 20260510162950 | 21 | 77 | 3.2 | 3.2 | 0.00 | 0.00 | 0.00 | 73 | |
| 20260510162446 | 21 | 64 | 3.2 | 3.2 | 0.00 | 0.00 | 0.00 | 74 | |
| 20260510161942 | 21 | 123 | 0.0 | 4.8 | 0.00 | 0.00 | 0.00 | 75 | |
| 20260510161437 | 21 | 93 | 0.0 | 3.2 | 0.00 | 0.00 | 0.00 | 74 | |
| 20260510160935 | 20 | 127 | 1.6 | 3.2 | 0.00 | 0.00 | 0.00 | 74 | |
| 20260510160432 | 20 | 118 | 0.0 | 3.2 | 0.00 | 0.00 | 0.00 | 75 | |
| 20260510155931 | 20 | 89 | 0.0 | 3.2 | 0.00 | 0.00 | 0.00 | 78 | |
| 20260510155423 | 20 | 87 | 1.6 | 3.2 | 0.00 | 0.00 | 0.00 | 79 | |
| 20260510154919 | 20 | 130 | 4.8 | 4.8 | 0.00 | 0.00 | 0.00 | 79 | |
| 20260510154415 | 20 | 62 | 3.2 | 4.8 | 0.00 | 0.00 | 0.00 | 76 | |
| 20260510153909 | 20 | 145 | 4.8 | 8.0 | 0.00 | 0.00 | 0.00 | 79 | |
| 20260510153406 | 20 | 148 | 4.8 | 6.4 | 0.00 | 0.00 | 0.00 | 79 | |
| 20260510152902 | 20 | 119 | 1.6 | 4.8 | 0.00 | 0.00 | 0.00 | 78 | |
| 20260510152400 | 20 | 104 | 1.6 | 4.8 | 0.00 | 0.00 | 0.00 | 78 | |
| 20260510151856 | 20 | 136 | 3.2 | 4.8 | 0.00 | 0.00 | 0.00 | 80 | |
| 20260510151354 | 20 | 108 | 1.6 | 3.2 | 0.00 | 0.00 | 0.00 | 79 | |
| 20260510150850 | 20 | 103 | 0.0 | 3.2 | 0.00 | 0.00 | 0.00 | 78 | |
| 20260510150345 | 21 | 103 | 0.0 | 1.6 | 0.00 | 0.00 | 0.00 | 80 | |
| 20260510145841 | 21 | 54 | 3.2 | 3.2 | 0.00 | 0.00 | 0.00 | 79 | |
| 20260510145338 | 21 | 50 | 3.2 | 3.2 | 0.00 | 0.00 | 0.00 | 78 | |
| 20260510144835 | 20 | 28 | 0.0 | 4.8 | 0.00 | 0.00 | 0.00 | 79 | |
| 20260510144331 | 21 | 0 | 1.6 | 3.2 | 0.00 | 0.00 | 0.00 | 79 | |
| 20260510143831 | 20 | 269 | 0.0 | 4.8 | 0.00 | 0.00 | 0.00 | 80 | |
| 20260510143327 | 20 | 353 | 3.2 | 4.8 | 0.00 | 0.00 | 0.00 | 78 | |
| 20260510142824 | 20 | 168 | 0.0 | 3.2 | 0.00 | 0.00 | 0.00 | 80 | |
| 20260510142321 | 20 | 156 | 0.0 | 3.2 | 0.00 | 0.00 | 0.00 | 80 | |
| 20260510141817 | 20 | 101 | 3.2 | 3.2 | 0.00 | 0.00 | 0.00 | 80 | |
| 20260510141315 | 19 | 113 | 3.2 | 3.2 | 0.00 | 0.00 | 0.00 | 81 | |
| 20260510140813 | 19 | 132 | 3.2 | 4.8 | 0.00 | 0.00 | 0.00 | 82 | |
| 20260510140308 | 20 | 53 | 3.2 | 4.8 | 0.00 | 0.00 | 0.00 | 79 | |
| 20260510135801 | 19 | 97 | 1.6 | 3.2 | 0.00 | 0.00 | 0.00 | 83 | |
| 20260510135257 | 19 | 159 | 4.8 | 6.4 | 0.00 | 0.00 | 0.00 | 81 | |
| 20260510134755 | 19 | 133 | 1.6 | 3.2 | 0.00 | 0.00 | 0.00 | 81 | |
| 20260510134252 | 20 | 120 | 3.2 | 4.8 | 0.00 | 0.00 | 0.00 | 77 | |
| 20260510133748 | 19 | 107 | 3.2 | 3.2 | 0.00 | 0.00 | 0.00 | 78 | |
| 20260510133244 | 19 | 16 | 3.2 | 3.2 | 0.00 | 0.00 | 0.00 | 77 | |
| 20260510132740 | 18 | 108 | 3.2 | 4.8 | 0.00 | 0.00 | 0.00 | 79 | |
| 20260510132238 | 18 | 89 | 3.2 | 3.2 | 0.00 | 0.00 | 0.00 | 82 | |
| 20260510131734 | 18 | 87 | 1.6 | 4.8 | 0.00 | 0.00 | 0.00 | 83 | |
| 20260510131233 | 17 | 166 | 1.6 | 6.4 | 0.00 | 0.00 | 0.00 | 82 | |
| 20260510130728 | 18 | 111 | 3.2 | 3.2 | 0.00 | 0.00 | 0.00 | 83 | |
| 20260510130226 | 18 | 69 | 3.2 | 4.8 | 0.00 | 0.00 | 0.00 | 82 | |
| 20260510125722 | 18 | 65 | 1.6 | 3.2 | 0.00 | 0.00 | 0.00 | 83 | |
| 20260510125218 | 18 | 47 | 0.0 | 6.4 | 0.00 | 0.00 | 0.00 | 83 | |
| 20260510124715 | 17 | 110 | 0.0 | 3.2 | 0.00 | 0.00 | 0.00 | 84 | |
| 20260510124213 | 17 | 66 | 0.0 | 3.2 | 0.00 | 0.00 | 0.00 | 87 | |
| 20260510123707 | 17 | 78 | 0.0 | 3.2 | 0.00 | 0.00 | 0.00 | 87 | |
| 20260510123204 | 16 | 149 | 3.2 | 3.2 | 0.00 | 0.00 | 0.00 | 89 | |
| 20260510122700 | 16 | 75 | 0.0 | 1.6 | 0.00 | 0.00 | 0.00 | 93 | |
| 20260510122157 | 15 | 134 | 3.2 | 3.2 | 0.00 | 0.00 | 0.00 | 94 | |
| 20260510121653 | 15 | 137 | 0.0 | 3.2 | 0.00 | 0.00 | 0.00 | 96 | |
| 20260510121150 | 15 | 76 | 0.0 | 3.2 | 0.00 | 0.00 | 0.00 | 97 | |
| 20260510120648 | 14 | 127 | 1.6 | 4.8 | 0.00 | 0.00 | 0.00 | 99 | |
| 20260510120143 | 14 | 107 | 1.6 | 3.2 | 0.00 | 0.00 | 0.00 | 99 | |
| 20260510115640 | 13 | 121 | 1.6 | 4.8 | 0.00 | 0.00 | 0.00 | 99 | |
| 20260510115138 | 13 | 93 | 3.2 | 3.2 | 0.00 | 0.00 | 0.00 | 99 | |
| 20260510114633 | 13 | 102 | 1.6 | 3.2 | 0.00 | 0.00 | 0.00 | 99 | |
| 20260510114130 | 13 | 82 | 3.2 | 4.8 | 0.00 | 0.00 | 0.00 | 99 | |
| 20260510113625 | 13 | 89 | 0.0 | 3.2 | 0.00 | 0.00 | 0.00 | 99 | |
| 20260510113123 | 12 | 89 | 1.6 | 3.2 | 0.00 | 0.00 | 0.00 | 99 | |
| 20260510112619 | 12 | 82 | 1.6 | 3.2 | 0.00 | 0.00 | 0.00 | 99 | |
| 20260510112116 | 12 | 76 | 3.2 | 3.2 | 0.00 | 0.00 | 0.00 | 99 | |
| 20260510111612 | 12 | 77 | 3.2 | 3.2 | 0.00 | 0.00 | 0.00 | 99 | |
| 20260510111108 | 12 | 83 | 1.6 | 3.2 | 0.00 | 0.00 | 0.00 | 99 | |
| 20260510110604 | 12 | 70 | 1.6 | 1.6 | 0.00 | 0.00 | 0.00 | 99 | |
| 20260510110101 | 12 | 100 | 0.0 | 3.2 | 0.00 | 0.00 | 0.00 | 99 | |
| 20260510105556 | 11 | 66 | 0.0 | 3.2 | 0.00 | 0.00 | 0.00 | 99 | |
| 20260510105051 | 11 | 81 | 3.2 | 3.2 | 0.00 | 0.00 | 0.00 | 99 | |
| 20260510104548 | 11 | 84 | 3.2 | 3.2 | 0.00 | 0.00 | 0.00 | 99 | |
| 20260510104044 | 11 | 81 | 1.6 | 3.2 | 0.00 | 0.00 | 0.00 | 99 | |
| 20260510103542 | 11 | 110 | 3.2 | 3.2 | 0.00 | 0.00 | 0.00 | 99 | |
| 20260510103038 | 11 | 81 | 3.2 | 3.2 | 0.00 | 0.00 | 0.00 | 99 | |
| 20260510102533 | 11 | 65 | 3.2 | 4.8 | 0.00 | 0.00 | 0.00 | 99 | |
| 20260510102030 | 11 | 66 | 0.0 | 3.2 | 0.00 | 0.00 | 0.00 | 99 | |
| 20260510101528 | 11 | 92 | 3.2 | 3.2 | 0.00 | 0.00 | 0.00 | 99 | |
| 20260510101026 | 11 | 51 | 1.6 | 4.8 | 0.00 | 0.00 | 0.00 | 99 | |
| 20260510100522 | 11 | 63 | 3.2 | 4.8 | 0.00 | 0.00 | 0.00 | 99 | |
| 20260510100019 | 11 | 83 | 3.2 | 3.2 | 0.00 | 0.00 | 0.00 | 99 | |
| 20260510095515 | 12 | 96 | 1.6 | 3.2 | 0.00 | 0.00 | 0.00 | 99 | |
| 20260510095014 | 11 | 85 | 1.6 | 3.2 | 0.00 | 0.00 | 0.00 | 99 | |
| 20260510094509 | 11 | 119 | 1.6 | 3.2 | 0.00 | 0.00 | 0.00 | 99 | |
| 20260510094004 | 11 | 55 | 0.0 | 3.2 | 0.00 | 0.00 | 0.00 | 99 | |
| 20260510093455 | 11 | 66 | 4.8 | 4.8 | 0.00 | 0.00 | 0.00 | 99 | |
| 20260510092951 | 11 | 93 | 1.6 | 3.2 | 0.00 | 0.00 | 0.00 | 99 | |
| 20260510092448 | 11 | 79 | 1.6 | 3.2 | 0.00 | 0.00 | 0.00 | 99 | |
| 20260510091948 | 11 | 114 | 0.0 | 3.2 | 0.00 | 0.00 | 0.00 | 99 | |
| 20260510091445 | 11 | 77 | 3.2 | 3.2 | 0.00 | 0.00 | 0.00 | 99 | |
| 20260510090941 | 11 | 86 | 3.2 | 3.2 | 0.00 | 0.00 | 0.00 | 99 | |
| 20260510090439 | 11 | 92 | 1.6 | 3.2 | 0.00 | 0.00 | 0.00 | 99 | |
| 20260510085934 | 11 | 102 | 1.6 | 3.2 | 0.00 | 0.00 | 0.00 | 99 | |
| 20260510085429 | 11 | 95 | 3.2 | 3.2 | 0.00 | 0.00 | 0.00 | 99 | |
| 20260510084925 | 11 | 73 | 1.6 | 3.2 | 0.00 | 0.00 | 0.00 | 99 | |
| 20260510084422 | 11 | 74 | 3.2 | 3.2 | 0.00 | 0.00 | 0.00 | 99 | |
| 20260510083919 | 11 | 76 | 1.6 | 3.2 | 0.00 | 0.00 | 0.00 | 99 | |
| 20260510083415 | 11 | 108 | 1.6 | 3.2 | 0.00 | 0.00 | 0.00 | 99 | |
| 20260510082911 | 11 | 115 | 3.2 | 3.2 | 0.00 | 0.00 | 0.00 | 99 | |
| 20260510082409 | 11 | 130 | 0.0 | 1.6 | 0.00 | 0.00 | 0.00 | 99 | |
| 20260510081907 | 11 | 109 | 1.6 | 3.2 | 0.00 | 0.00 | 0.00 | 99 | |
| 20260510081403 | 11 | 88 | 1.6 | 3.2 | 0.00 | 0.00 | 0.00 | 99 | |
| 20260510080900 | 11 | 74 | 3.2 | 3.2 | 0.00 | 0.00 | 0.00 | 99 | |
| 20260510080354 | 11 | 85 | 3.2 | 3.2 | 0.00 | 0.00 | 0.00 | 99 | |
| 20260510075852 | 12 | 67 | 3.2 | 3.2 | 0.00 | 0.00 | 0.00 | 99 | |
| 20260510075349 | 11 | 54 | 3.2 | 3.2 | 0.00 | 0.00 | 0.00 | 99 | |
| 20260510074845 | 11 | 87 | 1.6 | 3.2 | 0.00 | 0.00 | 0.00 | 99 | |
| 20260510074343 | 12 | 89 | 0.0 | 1.6 | 0.00 | 0.00 | 0.00 | 99 | |
| 20260510073839 | 12 | 108 | 1.6 | 1.6 | 0.00 | 0.00 | 0.00 | 99 | |
| 20260510073334 | 12 | 89 | 1.6 | 3.2 | 0.00 | 0.00 | 0.00 | 99 | |
| 20260510072831 | 12 | 60 | 3.2 | 4.8 | 0.00 | 0.00 | 0.00 | 99 | |
| 20260510072328 | 12 | 58 | 3.2 | 3.2 | 0.00 | 0.00 | 0.00 | 99 | |
| 20260510071824 | 12 | 89 | 1.6 | 1.6 | 0.00 | 0.00 | 0.00 | 99 | |
| 20260510071320 | 12 | 89 | 0.0 | 3.2 | 0.00 | 0.00 | 0.00 | 99 | |
| 20260510070820 | 12 | 102 | 3.2 | 3.2 | 0.00 | 0.00 | 0.00 | 99 | |
| 20260510070311 | 12 | 82 | 0.0 | 3.2 | 0.00 | 0.00 | 0.00 | 99 | |
| 20260510065810 | 12 | 95 | 1.6 | 3.2 | 0.00 | 0.00 | 0.00 | 99 | |
| 20260510065307 | 12 | 93 | 1.6 | 3.2 | 0.00 | 0.00 | 0.00 | 99 | |
| 20260510064804 | 12 | 93 | 1.6 | 3.2 | 0.00 | 0.00 | 0.00 | 99 | |
| 20260510064302 | 12 | 86 | 3.2 | 3.2 | 0.00 | 0.00 | 0.00 | 99 | |
| 20260510063757 | 12 | 89 | 1.6 | 3.2 | 0.00 | 0.00 | 0.00 | 99 | |
| 20260510063254 | 12 | 100 | 3.2 | 3.2 | 0.00 | 0.00 | 0.00 | 99 | |
| 20260510062750 | 12 | 109 | 1.6 | 3.2 | 0.00 | 0.00 | 0.00 | 99 | |
| 20260510062246 | 12 | 98 | 1.6 | 3.2 | 0.00 | 0.00 | 0.00 | 98 | |
| 20260510061742 | 12 | 89 | 1.6 | 3.2 | 0.00 | 0.00 | 0.00 | 98 | |
| 20260510061239 | 12 | 99 | 1.6 | 3.2 | 0.00 | 0.00 | 0.00 | 98 | |
| 20260510060735 | 12 | 105 | 1.6 | 3.2 | 0.00 | 0.00 | 0.00 | 98 | |
| 20260510060232 | 12 | 105 | 1.6 | 3.2 | 0.00 | 0.00 | 0.00 | 98 | |
| 20260510055729 | 12 | 94 | 1.6 | 1.6 | 0.00 | 0.00 | 0.00 | 98 | |
| 20260510055227 | 12 | 93 | 1.6 | 3.2 | 0.00 | 0.00 | 0.00 | 98 | |
| 20260510054722 | 12 | 89 | 1.6 | 3.2 | 0.00 | 0.00 | 0.00 | 98 | |
| 20260510054218 | 12 | 95 | 1.6 | 3.2 | 0.00 | 0.00 | 0.00 | 98 | |
| 20260510053717 | 12 | 97 | 1.6 | 1.6 | 0.00 | 0.00 | 0.00 | 98 | |
| 20260510053214 | 13 | 83 | 1.6 | 3.2 | 0.00 | 0.00 | 0.00 | 98 | |
| 20260510052709 | 13 | 89 | 1.6 | 1.6 | 0.00 | 0.00 | 0.00 | 98 | |
| 20260510052206 | 13 | 89 | 1.6 | 1.6 | 0.00 | 0.00 | 0.00 | 98 | |
| 20260510051701 | 13 | 92 | 1.6 | 1.6 | 0.00 | 0.00 | 0.00 | 98 | |
| 20260510051158 | 13 | 82 | 1.6 | 1.6 | 0.00 | 0.00 | 0.00 | 98 | |
| 20260510050656 | 13 | 81 | 0.0 | 3.2 | 0.00 | 0.00 | 0.00 | 98 | |
| 20260510050153 | 13 | 111 | 3.2 | 3.2 | 0.00 | 0.00 | 0.00 | 98 | |
| 20260510045649 | 13 | 87 | 1.6 | 3.2 | 0.00 | 0.00 | 0.00 | 98 | |
| 20260510045146 | 13 | 83 | 1.6 | 1.6 | 0.00 | 0.00 | 0.00 | 98 | |
| 20260510044642 | 13 | 89 | 1.6 | 1.6 | 0.00 | 0.00 | 0.00 | 97 | |
| 20260510044140 | 13 | 85 | 1.6 | 3.2 | 0.00 | 0.00 | 0.00 | 97 | |
| 20260510043635 | 13 | 89 | 1.6 | 1.6 | 0.00 | 0.00 | 0.00 | 97 | |
| 20260510043132 | 13 | 89 | 0.0 | 3.2 | 0.00 | 0.00 | 0.00 | 97 | |
| 20260510042630 | 13 | 83 | 1.6 | 3.2 | 0.00 | 0.00 | 0.00 | 97 | |
| 20260510042125 | 13 | 59 | 3.2 | 3.2 | 0.00 | 0.00 | 0.00 | 97 | |
| 20260510041623 | 13 | 81 | 1.6 | 3.2 | 0.00 | 0.00 | 0.00 | 97 | |
| 20260510041120 | 13 | 87 | 0.0 | 1.6 | 0.00 | 0.00 | 0.00 | 97 | |
| 20260510040617 | 13 | 76 | 0.0 | 3.2 | 0.00 | 0.00 | 0.00 | 97 | |
| 20260510040113 | 13 | 97 | 0.0 | 1.6 | 0.00 | 0.00 | 0.00 | 97 | |
| 20260510035610 | 13 | 85 | 0.0 | 3.2 | 0.00 | 0.00 | 0.00 | 97 | |
| 20260510035109 | 13 | 89 | 1.6 | 1.6 | 0.00 | 0.00 | 0.00 | 97 | |
| 20260510034607 | 13 | 110 | 1.6 | 1.6 | 0.00 | 0.00 | 0.00 | 96 | |
| 20260510034104 | 13 | 80 | 1.6 | 3.2 | 0.00 | 0.00 | 0.00 | 96 | |
| 20260510033600 | 14 | 121 | 0.0 | 1.6 | 0.00 | 0.00 | 0.00 | 96 | |
| 20260510033058 | 14 | 112 | 1.6 | 3.2 | 0.00 | 0.00 | 0.00 | 96 | |
| 20260510032554 | 14 | 89 | 0.0 | 1.6 | 0.00 | 0.00 | 0.00 | 96 | |
| 20260510032050 | 14 | 109 | 1.6 | 1.6 | 0.00 | 0.00 | 0.00 | 96 | |
| 20260510031550 | 14 | 100 | 1.6 | 1.6 | 0.00 | 0.00 | 0.00 | 96 | |
| 20260510031046 | 14 | 87 | 1.6 | 1.6 | 0.00 | 0.00 | 0.00 | 96 | |
| 20260510030541 | 14 | 107 | 1.6 | 1.6 | 0.00 | 0.00 | 0.00 | 96 | |
| 20260510030039 | 14 | 110 | 0.0 | 1.6 | 0.00 | 0.00 | 0.00 | 96 | |
| 20260510025536 | 14 | 93 | 1.6 | 1.6 | 0.00 | 0.00 | 0.00 | 95 | |
| 20260510025034 | 14 | 92 | 1.6 | 1.6 | 0.00 | 0.00 | 0.00 | 96 | |
| 20260510024530 | 14 | 97 | 1.6 | 3.2 | 0.00 | 0.00 | 0.00 | 95 | |
| 20260510024026 | 14 | 83 | 1.6 | 1.6 | 0.00 | 0.00 | 0.00 | 95 | |
| 20260510023522 | 14 | 107 | 1.6 | 3.2 | 0.00 | 0.00 | 0.00 | 95 | |
| 20260510023021 | 14 | 93 | 1.6 | 1.6 | 0.00 | 0.00 | 0.00 | 96 | |
| 20260510022520 | 15 | 89 | 0.0 | 1.6 | 0.00 | 0.00 | 0.00 | 96 | |
| 20260510022020 | 15 | 98 | 1.6 | 1.6 | 0.00 | 0.00 | 0.00 | 96 | |
| 20260510021516 | 15 | 117 | 1.6 | 1.6 | 0.00 | 0.00 | 0.00 | 96 | |
| 20260510021014 | 15 | 103 | 0.0 | 3.2 | 0.00 | 0.00 | 0.00 | 95 | |
| 20260510020508 | 15 | 103 | 0.0 | 3.2 | 0.00 | 0.00 | 0.00 | 95 | |
| 20260510020004 | 15 | 106 | 0.0 | 1.6 | 0.00 | 0.00 | 0.00 | 95 | |
| 20260510015500 | 15 | 89 | 1.6 | 1.6 | 0.00 | 0.00 | 0.00 | 95 | |
| 20260510014955 | 15 | 104 | 0.0 | 1.6 | 0.00 | 0.00 | 0.00 | 95 | |
| 20260510014453 | 15 | 101 | 1.6 | 1.6 | 0.00 | 0.00 | 0.00 | 94 | |
| 20260510013950 | 15 | 95 | 0.0 | 1.6 | 0.00 | 0.00 | 0.00 | 94 | |
| 20260510013444 | 15 | 94 | 1.6 | 1.6 | 0.00 | 0.00 | 0.00 | 94 | |
| 20260510012940 | 15 | 95 | 0.0 | 1.6 | 0.00 | 0.00 | 0.00 | 94 | |
| 20260510012429 | 15 | 100 | 1.6 | 1.6 | 0.00 | 0.00 | 0.00 | 94 | |
| 20260510011924 | 15 | 96 | 1.6 | 1.6 | 0.00 | 0.00 | 0.00 | 94 | |
| 20260510011419 | 15 | 89 | 0.0 | 1.6 | 0.00 | 0.00 | 0.00 | 94 | |
| 20260510010916 | 15 | 89 | 1.6 | 1.6 | 0.00 | 0.00 | 0.00 | 94 | |
| 20260510010413 | 15 | 81 | 1.6 | 3.2 | 0.00 | 0.00 | 0.00 | 94 | |
| 20260510005910 | 15 | 112 | 1.6 | 3.2 | 0.00 | 0.00 | 0.00 | 93 | |
| 20260510005406 | 15 | 92 | 0.0 | 1.6 | 0.00 | 0.00 | 0.00 | 93 | |
| 20260510004904 | 15 | 78 | 3.2 | 3.2 | 0.00 | 0.00 | 0.00 | 93 | |
| 20260510004402 | 15 | 78 | 3.2 | 3.2 | 0.00 | 0.00 | 0.00 | 92 | |
| 20260510003859 | 15 | 87 | 1.6 | 3.2 | 0.00 | 0.00 | 0.00 | 91 | |
| 20260510003355 | 16 | 66 | 3.2 | 3.2 | 0.00 | 0.00 | 0.00 | 90 | |
| 20260510002854 | 16 | 64 | 3.2 | 3.2 | 0.00 | 0.00 | 0.00 | 90 | |
| 20260510002351 | 16 | 109 | 0.0 | 1.6 | 0.00 | 0.00 | 0.00 | 89 | |
| 20260510001843 | 16 | 77 | 1.6 | 1.6 | 0.00 | 0.00 | 0.00 | 88 | |
| 20260510001341 | 16 | 85 | 1.6 | 1.6 | 0.00 | 0.00 | 0.00 | 87 | |
| 20260510000837 | 16 | 101 | 1.6 | 1.6 | 0.00 | 0.00 | 0.00 | 86 | |
| 20260510000334 | 16 | 84 | 1.6 | 1.6 | 0.00 | 0.00 | 0.00 | 86 | |
| 20260509235831 | 16 | 93 | 1.6 | 1.6 | 0.00 | 0.00 | 0.00 | 85 | |
| 20260509235327 | 17 | 95 | 0.0 | 1.6 | 0.00 | 0.00 | 0.00 | 84 | |
| 20260509234823 | 17 | 89 | 0.0 | 1.6 | 0.00 | 0.00 | 0.00 | 84 | |
| 20260509234320 | 17 | 89 | 0.0 | 1.6 | 0.00 | 0.00 | 0.00 | 82 | |
| 20260509233818 | 17 | 81 | 0.0 | 1.6 | 0.00 | 0.00 | 0.00 | 82 | |
| 20260509233316 | 17 | 77 | 1.6 | 1.6 | 0.00 | 0.00 | 0.00 | 80 | |
| 20260509232811 | 17 | 50 | 0.0 | 0.0 | 0.00 | 0.00 | 0.00 | 80 | |
| 20260509232309 | 18 | 113 | 0.0 | 3.2 | 0.00 | 0.00 | 0.00 | 82 | |
| 20260509231805 | 17 | 60 | 0.0 | 3.2 | 0.00 | 0.00 | 0.00 | 81 | |
| 20260509231302 | 18 | 42 | 1.6 | 3.2 | 0.00 | 0.00 | 0.00 | 81 | |
| 20260509230800 | 18 | 80 | 0.0 | 1.6 | 0.00 | 0.00 | 0.00 | 82 | |
| 20260509230257 | 18 | 22 | 1.6 | 1.6 | 0.00 | 0.00 | 0.00 | 80 | |
| 20260509225757 | 18 | 116 | 0.0 | 0.0 | 0.00 | 0.00 | 0.00 | 78 | |
| 20260509225253 | 18 | 60 | 1.6 | 3.2 | 0.00 | 0.00 | 0.00 | 81 | |
| 20260509224749 | 19 | 82 | 0.0 | 1.6 | 0.00 | 0.00 | 0.00 | 76 | |
| 20260509224246 | 19 | 85 | 1.6 | 3.2 | 0.00 | 0.00 | 0.00 | 75 | |
| 20260509223743 | 19 | 89 | 0.0 | 1.6 | 0.00 | 0.00 | 0.00 | 75 | |
| 20260509223240 | 19 | 124 | 0.0 | 1.6 | 0.00 | 0.00 | 0.00 | 74 | |
| 20260509222737 | 19 | 64 | 1.6 | 3.2 | 0.00 | 0.00 | 0.00 | 74 | |
| 20260509222232 | 20 | 97 | 0.0 | 1.6 | 0.00 | 0.00 | 0.00 | 75 | |
| 20260509221728 | 20 | 37 | 0.0 | 3.2 | 0.00 | 0.00 | 0.00 | 76 | |
| 20260509221225 | 20 | 50 | 0.0 | 0.0 | 0.00 | 0.00 | 0.00 | 73 | |
| 20260509220721 | 20 | 50 | 0.0 | 0.0 | 0.00 | 0.00 | 0.00 | 74 | |
| 20260509220218 | 20 | 23 | 0.0 | 1.6 | 0.00 | 0.00 | 0.00 | 74 | |
| 20260509215713 | 20 | 53 | 0.0 | 3.2 | 0.00 | 0.00 | 0.00 | 76 | |
| 20260509215209 | 20 | 109 | 3.2 | 3.2 | 0.00 | 0.00 | 0.00 | 74 | |
| 20260509214707 | 20 | 197 | 0.0 | 3.2 | 0.00 | 0.00 | 0.00 | 74 | |
| 20260509214204 | 20 | 48 | 0.0 | 3.2 | 0.00 | 0.00 | 0.00 | 67 | |
| 20260509213700 | 20 | 117 | 0.0 | 3.2 | 0.00 | 0.00 | 0.00 | 67 | |
| 20260509213156 | 20 | 89 | 0.0 | 3.2 | 0.00 | 0.00 | 0.00 | 70 | |
| 20260509212654 | 20 | 336 | 0.0 | 3.2 | 0.00 | 0.00 | 0.00 | 70 | |
| 20260509212150 | 21 | 27 | 3.2 | 4.8 | 0.00 | 0.00 | 0.00 | 66 | |
| 20260509211646 | 21 | 38 | 0.0 | 3.2 | 0.00 | 0.00 | 0.00 | 70 | |
| 20260509211143 | 21 | 106 | 1.6 | 3.2 | 0.00 | 0.00 | 0.00 | 66 | |
| 20260509210640 | 21 | 38 | 0.0 | 3.2 | 0.00 | 0.00 | 0.00 | 73 | |
| 20260509210132 | 22 | 81 | 1.6 | 1.6 | 0.00 | 0.00 | 0.00 | 69 | |
| 20260509205627 | 21 | 89 | 0.0 | 3.2 | 0.00 | 0.00 | 0.00 | 69 |